Stations météo

réclame
Mon MeteoGroup
Romorantin, France (7247): Température de l'air & dewpoint: 10.06.2019 01:00:00 - 16.06.2019 01:00:00 (CEST)Romorantin, France (7247): Température de l'air 5cm: 10.06.2019 01:00:00 - 16.06.2019 01:00:00 (CEST)Romorantin, France (7247): Température de l'air -20cm & Température de l'air -100cm: 10.06.2019 01:00:00 - 16.06.2019 01:00:00 (CEST)Romorantin, France (7247): Vitesse du vent & gusts: 10.06.2019 01:00:00 - 16.06.2019 01:00:00 (CEST)Romorantin, France (7247): Direction du vent: 10.06.2019 01:00:00 - 16.06.2019 01:00:00 (CEST)Romorantin, France (7247): reduced air pressure: 10.06.2019 01:00:00 - 16.06.2019 01:00:00 (CEST)Romorantin, France (7247): visibility: 10.06.2019 01:00:00 - 16.06.2019 01:00:00 (CEST)Romorantin, France (7247): Quantités de précipitations: 10.06.2019 01:00:00 - 16.06.2019 01:00:00 (CEST)
Date & Time tt [°C] td [°C] tt 5cm [°C] tt -20cm [°C] tt -100cm [°C] ff [km/h] ff [knt] fx [km/h] fx [knt] dd ppp [hPa] vv [km] rr [mm]
16.06.2019 01:00:00 - - - - - - - - - - - - -
16.06.2019 00:00:00 11,5 9,7 8,8 17,8 15,4 5 3 11 6 SSW 1021,4 20 0,0
15.06.2019 23:00:00 15,2 9,5 12,5 17,8 15,4 6 4 21 11 SW 1020,7 20 0,0
15.06.2019 22:00:00 17,2 9,4 14,3 17,8 15,4 11 6 25 14 W 1019,9 20 0,0
15.06.2019 21:00:00 19,2 9,7 16,7 17,8 15,4 9 5 32 17 WSW 1019,1 20 0,0
15.06.2019 20:00:00 20,9 8,2 20,5 17,7 15,4 16 9 31 17 WSW 1018,6 20 0,0
15.06.2019 19:00:00 21,1 10,3 19,7 17,5 15,4 10 5 22 12 SW 1018,4 20 0,0
15.06.2019 18:00:00 20,4 9,6 21,2 17,4 15,4 12 6 29 16 WSW 1018,4 20 0,0
15.06.2019 17:00:00 20,6 10,7 22,0 17,3 15,4 17 9 29 16 WSW 1018,3 20 0,0
15.06.2019 16:00:00 19,9 11,9 22,0 17,1 15,4 10 5 27 15 SW 1018,3 20 0,0
15.06.2019 15:00:00 19,5 11,8 22,4 17,0 15,3 9 5 23 12 WSW 1018,4 20 0,0
15.06.2019 14:00:00 18,9 12,2 24,7 17,0 15,4 13 7 26 14 S 1018,5 20 0,0
15.06.2019 13:00:00 17,4 11,9 18,7 16,9 15,4 12 7 31 17 SW 1018,7 20 0,0
15.06.2019 12:00:00 16,0 11,8 18,5 16,9 15,3 11 6 17 9 SSW 1018,6 20 0,0
15.06.2019 11:00:00 15,7 11,9 19,0 17,0 15,3 9 5 17 9 WSW 1018,5 20 0,0
15.06.2019 10:00:00 14,8 12,3 15,5 17,0 15,3 8 4 16 9 WSW 1017,8 20 0,0
15.06.2019 09:00:00 13,4 11,6 14,1 17,1 15,3 9 5 17 9 WSW 1017,5 20 0,0
15.06.2019 08:00:00 13,1 11,5 11,6 17,2 15,3 10 6 16 8 SW 1016,7 20 0,0
15.06.2019 07:00:00 11,9 11,3 10,4 17,3 15,3 4 2 9 5 SW 1015,9 20 0,0
15.06.2019 06:00:00 12,2 11,6 10,5 17,4 15,3 3 2 9 5 W 1015,7 20 0,2
15.06.2019 05:00:00 13,1 12,3 11,8 17,5 15,3 5 3 14 7 WSW 1015,4 20 0,0
15.06.2019 04:00:00 14,2 14,0 11,5 17,6 15,3 8 4 14 7 WSW 1014,3 17 0,0
15.06.2019 03:00:00 14,7 14,4 12,1 17,7 15,3 5 3 8 4 WSW 1014,0 8 0,0
15.06.2019 02:00:00 15,6 15,3 15,2 17,7 15,3 5 3 9 5 WSW 1013,6 19 0,2
15.06.2019 01:00:00 15,8 15,6 15,4 17,8 15,3 3 2 10 5 W 1013,1 3,4 2,0
15.06.2019 00:00:00 15,6 15,4 15,2 17,9 15,3 2 1 4 2 WSW 1013,1 11 0,8
14.06.2019 23:00:00 15,7 15,4 15,5 17,9 15,3 4 2 7 4 E 1012,7 6 3,2
14.06.2019 22:00:00 15,9 15,1 15,6 17,8 15,3 6 3 20 11 WSW 1012,3 6 5,3
14.06.2019 21:00:00 16,5 15,4 16,1 17,6 15,3 20 11 38 20 SE 1012,0 2,7 6,3
14.06.2019 20:00:00 21,2 15,1 20,5 17,5 15,3 5 3 18 10 N 1010,9 20 0,0
14.06.2019 19:00:00 22,5 15,1 23,7 17,3 15,3 7 4 18 10 N 1010,7 20 0,0
14.06.2019 18:00:00 22,3 14,7 24,1 17,1 15,3 7 4 22 12 N 1011,0 20 0,0
14.06.2019 17:00:00 23,3 14,3 25,9 16,8 15,3 12 7 22 12 NNW 1011,0 20 0,0
14.06.2019 16:00:00 23,0 14,6 26,2 16,6 15,3 7 4 22 12 NE 1011,4 20 0,0
14.06.2019 15:00:00 22,0 15,1 27,1 16,4 15,3 9 5 17 9 N 1012,1 20 0,0
14.06.2019 14:00:00 21,3 14,5 26,7 16,2 15,3 4 2 12 7 N 1013,0 20 0,0
14.06.2019 13:00:00 21,0 13,9 26,0 16,1 15,3 4 2 15 8 E 1013,8 20 0,0
14.06.2019 12:00:00 19,3 13,7 22,1 16,0 15,3 4 2 7 4 WSW 1014,1 20 0,0
14.06.2019 11:00:00 17,7 13,8 19,8 15,9 15,3 5 3 14 8 SW 1014,6 20 0,0
14.06.2019 10:00:00 16,6 14,2 17,0 16,0 15,3 9 5 16 8 SW 1014,7 20 0,0
14.06.2019 09:00:00 15,2 13,7 16,2 16,0 15,3 7 4 11 6 WSW 1014,3 20 0,0
14.06.2019 08:00:00 14,2 13,9 12,9 16,0 15,3 4 2 8 4 WSW 1014,0 20 0,0
14.06.2019 07:00:00 12,5 12,0 11,7 16,1 15,3 3 2 5 3 SSE 1013,4 1,6 0,0
14.06.2019 06:00:00 13,5 13,0 12,8 16,2 15,3 2 1 21 11 SE 1013,0 20 1,6
14.06.2019 05:00:00 13,4 13,2 13,2 16,2 15,3 9 5 13 7 ESE 1013,0 6 0,6
14.06.2019 04:00:00 13,7 13,4 13,3 16,3 15,3 4 2 9 5 N 1013,3 6 1,5
14.06.2019 03:00:00 13,5 13,3 13,0 16,4 15,3 3 2 12 7 S 1014,3 6 4,8
14.06.2019 02:00:00 13,0 12,7 11,4 16,4 15,3 0 0 6 4 N 1013,9 17 0,8
14.06.2019 01:00:00 11,2 10,9 9,7 16,5 15,3 0 0 5 3 N 1012,7 20 0,0
14.06.2019 00:00:00 11,6 11,3 8,8 16,5 15,3 0 0 3 2 N 1012,7 16 0,0
13.06.2019 23:00:00 12,4 11,5 9,9 16,5 15,3 0 0 5 3 N 1012,7 19 0,0
13.06.2019 22:00:00 15,6 12,3 12,8 16,4 15,3 0 0 5 3 N 1012,1 18 0,0
13.06.2019 21:00:00 19,6 11,4 18,5 16,2 15,3 4 2 11 6 WNW 1011,9 20 0,0
13.06.2019 20:00:00 21,5 11,2 19,3 16,1 15,3 4 2 13 7 W 1011,5 20 0,0
13.06.2019 19:00:00 21,6 12,2 21,9 15,8 15,3 6 3 22 12 SW 1011,4 20 0,0
13.06.2019 18:00:00 22,0 12,0 23,9 15,6 15,3 6 4 21 11 WSW 1011,6 20 0,0
13.06.2019 17:00:00 20,4 11,1 23,1 15,4 15,3 10 5 26 14 WSW 1011,8 20 0,0
13.06.2019 16:00:00 19,9 11,6 23,8 15,3 15,3 5 3 18 10 S 1012,3 20 0,0
13.06.2019 15:00:00 17,6 11,4 16,4 15,2 15,3 6 3 16 9 S 1012,6 20 0,0
13.06.2019 14:00:00 15,1 11,1 14,5 15,1 15,3 0 0 16 9 N 1013,1 20 0,2
13.06.2019 13:00:00 14,7 11,8 14,7 15,1 15,3 6 3 16 9 W 1014,0 20 0,4
13.06.2019 12:00:00 15,1 10,7 16,0 15,1 15,3 10 5 27 15 SW 1013,7 20 0,0
13.06.2019 11:00:00 15,2 10,0 17,5 15,1 15,3 14 8 30 16 SW 1013,6 20 0,0
13.06.2019 10:00:00 15,1 11,1 17,1 15,1 15,3 18 10 29 16 SSW 1013,5 20 0,0
13.06.2019 09:00:00 13,5 11,7 11,8 15,2 15,3 9 5 16 9 S 1013,4 20 0,0
13.06.2019 08:00:00 11,2 10,4 9,7 15,2 15,3 10 6 17 9 S 1013,2 20 0,0
13.06.2019 07:00:00 9,9 9,6 5,7 15,3 15,3 9 5 16 9 S 1013,3 20 0,0
13.06.2019 06:00:00 8,5 8,4 5,0 15,4 15,3 6 3 13 7 S 1013,2 20 0,0
13.06.2019 05:00:00 8,5 8,2 5,3 15,6 15,4 6 4 12 7 S 1013,3 20 0,0
13.06.2019 04:00:00 8,6 8,3 5,3 15,7 15,3 7 4 12 7 S 1013,5 20 0,0
13.06.2019 03:00:00 9,2 8,9 5,2 15,7 15,3 6 3 10 5 S 1013,6 20 0,0
13.06.2019 02:00:00 9,6 9,1 6,5 15,9 15,3 5 3 11 6 SSW 1013,5 20 0,0
13.06.2019 01:00:00 10,3 9,7 6,7 15,9 15,3 6 3 11 6 SSW 1013,3 20 0,2
13.06.2019 00:00:00 10,1 9,5 7,2 16,0 15,3 6 3 13 7 SSW 1013,0 20 0,0
12.06.2019 23:00:00 10,3 9,5 8,9 16,0 15,3 8 5 13 7 SSE 1013,0 20 0,0
12.06.2019 22:00:00 11,6 10,7 10,8 16,0 15,3 4 2 16 9 S 1012,4 20 0,0
12.06.2019 21:00:00 12,8 9,8 11,4 16,0 15,3 16 8 44 24 SSW 1012,2 19 0,4
12.06.2019 20:00:00 16,3 8,5 16,0 15,9 15,3 22 12 37 20 SW 1010,9 20 0,0
12.06.2019 19:00:00 17,0 9,9 17,5 15,8 15,3 17 9 37 20 SW 1010,2 20 0,0
12.06.2019 18:00:00 17,5 10,1 16,5 15,7 15,3 20 11 39 21 SW 1009,9 20 0,0
12.06.2019 17:00:00 15,9 10,9 15,6 15,7 15,3 18 10 47 25 SW 1009,6 20 0,0
12.06.2019 16:00:00 16,5 12,6 13,4 15,6 15,4 21 11 44 24 SSW 1009,1 20 0,2
12.06.2019 15:00:00 14,5 10,7 14,0 15,5 15,3 32 18 49 26 S 1009,2 20 0,4
12.06.2019 14:00:00 14,3 11,4 13,1 15,5 15,3 23 12 40 22 S 1009,2 19 1,4
12.06.2019 13:00:00 15,7 10,9 17,0 15,5 15,3 20 11 40 22 S 1009,0 20 0,0
12.06.2019 12:00:00 14,1 10,5 13,1 15,5 15,3 26 14 42 23 S 1009,5 20 0,0
12.06.2019 11:00:00 12,5 11,4 12,2 15,5 15,3 13 7 30 16 S 1009,4 20 0,6
12.06.2019 10:00:00 12,1 10,7 11,9 15,5 15,3 11 6 27 15 SSE 1009,5 20 0,4
12.06.2019 09:00:00 11,6 10,3 11,8 15,6 15,3 15 8 25 14 SSE 1009,6 20 0,6
12.06.2019 08:00:00 12,2 9,8 11,0 15,7 15,3 12 6 20 11 SSE 1009,4 20 0,0
12.06.2019 07:00:00 10,8 8,9 9,5 15,7 15,3 9 5 15 8 SE 1009,4 20 0,0
12.06.2019 06:00:00 10,2 8,6 9,0 15,9 15,3 10 6 18 10 S 1009,4 20 0,0
12.06.2019 05:00:00 9,8 8,6 8,7 15,9 15,3 9 5 14 7 SSE 1009,6 20 0,0
12.06.2019 04:00:00 9,1 8,2 8,1 16,0 15,3 7 4 11 6 SE 1009,8 20 0,0
12.06.2019 03:00:00 10,5 9,1 9,8 16,1 15,3 8 4 16 9 SSE 1010,1 20 0,0
12.06.2019 02:00:00 10,8 9,4 7,1 16,2 15,3 9 5 16 9 SSW 1010,4 20 0,0
12.06.2019 01:00:00 9,1 8,6 5,9 16,3 15,3 0 0 7 4 N 1010,6 20 0,0
12.06.2019 00:00:00 9,6 8,7 6,4 16,3 15,3 3 2 11 6 S 1010,6 20 0,0
11.06.2019 23:00:00 9,3 8,7 6,6 16,4 15,3 5 3 9 5 SSE 1010,7 20 0,0
11.06.2019 22:00:00 11,1 9,4 9,6 16,4 15,3 8 5 19 11 SE 1010,6 20 0,0
11.06.2019 21:00:00 14,4 10,6 13,7 16,3 15,3 13 7 20 11 SE 1010,5 20 0,0
11.06.2019 20:00:00 15,7 9,4 16,2 16,2 15,3 9 5 26 14 SE 1010,2 20 0,0
11.06.2019 19:00:00 16,0 9,4 17,3 16,1 15,3 18 10 29 16 SE 1010,3 20 0,0
11.06.2019 18:00:00 15,5 9,6 17,6 16,0 15,3 16 9 24 13 SE 1010,5 20 0,0
11.06.2019 17:00:00 15,8 10,8 17,7 16,0 15,3 12 6 27 14 ESE 1010,9 20 0,0
11.06.2019 16:00:00 13,6 12,3 13,5 15,9 15,3 11 6 17 9 SSE 1011,7 17 0,6
11.06.2019 15:00:00 12,4 10,5 12,6 15,9 15,3 12 6 36 19 SSE 1012,2 19 0,6
11.06.2019 14:00:00 14,3 9,9 14,7 15,8 15,3 17 9 25 14 S 1011,7 20 0,0
11.06.2019 13:00:00 15,5 7,8 20,4 15,7 15,3 14 7 24 13 S 1011,6 20 0,0
11.06.2019 12:00:00 15,2 8,7 19,1 15,7 15,3 14 8 26 14 S 1011,8 20 0,0
11.06.2019 11:00:00 14,9 9,7 18,2 15,7 15,3 9 5 20 11 S 1012,0 20 0,0
11.06.2019 10:00:00 12,4 10,3 13,4 15,7 15,3 2 1 6 3 SE 1012,4 20 0,2
11.06.2019 09:00:00 10,4 9,9 10,2 15,9 15,3 2 1 5 3 W 1012,2 20 0,0
11.06.2019 08:00:00 8,7 8,7 7,6 16,0 15,3 0 0 4 2 N 1012,5 20 0,0
11.06.2019 07:00:00 7,0 7,0 5,6 16,1 15,3 0 0 3 1 N 1012,6 20 0,0
11.06.2019 06:00:00 5,2 5,2 2,3 16,3 15,3 0 0 5 3 N 1013,0 20 0,0
11.06.2019 05:00:00 4,7 4,6 2,1 16,4 15,3 0 0 3 1 N 1013,4 1,0 0,0
11.06.2019 04:00:00 5,5 5,4 3,2 16,5 15,3 0 0 4 2 N 1013,5 0,2 0,0
11.06.2019 03:00:00 5,1 4,5 3,1 16,7 15,3 0 0 2 1 N 1013,8 0,3 0,0
11.06.2019 02:00:00 7,3 6,4 4,9 16,8 15,3 0 0 6 4 N 1014,0 0,2 0,0
11.06.2019 01:00:00 10,4 9,0 8,1 16,9 15,3 4 2 9 5 SSW 1014,5 20 0,0
11.06.2019 00:00:00 9,9 8,7 8,4 17,0 15,3 6 3 10 6 S 1014,7 20 0,0
10.06.2019 23:00:00 10,2 9,4 8,2 17,0 15,3 8 4 10 6 SSW 1015,0 20 0,0
10.06.2019 22:00:00 11,9 8,9 10,6 17,0 15,3 5 3 17 9 WNW 1014,3 20 0,0
10.06.2019 21:00:00 12,9 9,5 12,4 17,0 15,3 4 2 21 12 NNW 1014,6 20 0,0
10.06.2019 20:00:00 14,1 10,1 13,8 17,0 15,3 12 6 26 14 WNW 1014,0 19 0,0
10.06.2019 19:00:00 17,3 9,0 19,7 16,8 15,2 3 2 25 14 NNW 1013,6 20 0,0
10.06.2019 18:00:00 17,4 8,5 19,7 16,7 15,2 17 9 31 17 NW 1014,1 20 0,0
10.06.2019 17:00:00 18,8 8,2 20,8 16,6 15,3 16 8 36 19 WNW 1014,0 20 0,0
10.06.2019 16:00:00 20,1 6,1 22,3 16,4 15,2 18 10 36 19 W 1014,0 20 0,0
10.06.2019 15:00:00 18,5 8,5 19,9 16,3 15,2 14 8 28 15 W 1014,8 20 0,0
10.06.2019 14:00:00 17,2 9,9 19,2 16,3 15,2 18 10 34 18 W 1015,3 20 0,0
10.06.2019 13:00:00 17,8 9,7 17,7 16,3 15,2 16 8 31 17 W 1015,2 20 0,0
10.06.2019 12:00:00 15,4 10,0 14,6 16,3 15,2 16 9 29 16 W 1015,9 20 0,0
10.06.2019 11:00:00 13,4 9,6 14,4 16,4 15,2 13 7 29 15 W 1016,3 20 0,0
10.06.2019 10:00:00 13,4 10,4 13,8 16,4 15,2 15 8 34 19 W 1016,2 20 0,0
10.06.2019 09:00:00 13,2 11,4 13,7 16,5 15,2 14 7 25 14 WSW 1016,2 20 0,0
10.06.2019 08:00:00 12,8 11,9 12,1 16,6 15,2 8 5 15 8 WSW 1016,0 20 0,0
10.06.2019 07:00:00 12,4 11,3 12,1 16,7 15,2 6 3 14 8 WSW 1016,4 20 0,0
10.06.2019 06:00:00 12,8 11,7 12,3 16,7 15,2 4 2 13 7 WSW 1015,8 20 0,0
10.06.2019 05:00:00 13,5 12,2 13,1 16,8 15,2 5 3 14 7 W 1016,0 20 0,0
10.06.2019 04:00:00 13,6 12,2 12,9 16,9 15,2 7 4 13 7 NW 1015,9 20 0,0
10.06.2019 03:00:00 13,8 12,2 12,6 17,0 15,2 4 2 21 11 NNW 1016,0 20 0,0
10.06.2019 02:00:00 14,2 12,1 11,5 17,0 15,2 4 2 19 11 NNW 1016,1 20 0,0
10.06.2019 01:00:00 12,8 11,7 11,4 17,0 15,2 0 0 9 5 N 1016,1 20 0,0

tt = Température de l'air
td = dewpoint
tt 5cm = Température de l'air 5cm
tt -20cm = Température de l'air -20cm
tt -100cm = Température de l'air -100cm
ff = Vitesse du vent
fx = gusts
dd = Direction du vent
ppp = reduced air pressure
vv = visibility
rr = Quantités de précipitations

stations d'obs. à proximité